Location: Chervonnoye
(48.6000°N, 34.4000°E)
Time: 13:55:00
(UTC+00:00)

deb Kosmos-2237 - Pass Details

Date: 22 June 2021
Orbit: 850 x 1045 km, 71.0° (Epoch: 25 July)

Event Time Altitude Azimuth Distance (km) Brightness Sun altitude
Rises 00:38:27 0° 330° (NNW) 3,765 ? -8.1°
Reaches altitude 10° 00:42:25 10° 353° (N) 2,839 ? -7.7°
Maximum altitude 00:46:05 15° 27° (NNE) 2,495 ? -7.3°
Drops below altitude 10° 00:49:47 10° 60° (ENE) 2,861 ? -6.9°
Sets 00:53:47 0° 83° (E) 3,812 ? -6.5°
